Date String (YYYY-MM-DD hh:mm:ss) UTC,Instrument flags,Ambient pressure (hPa),Sample flow (lpm),Bypass flow (lpm),Sample temperature (°C),Ambient temperature (°C),ASC tube jacket temperature (°C),LED temperature (°C),Box temperature (°C),Sample RH (%),Span deviation,Mass concentration (μg/m³),Mass concentration (μg/m³),Mass concentration (μg/m³)
DateTimeUTC,F1_M11,P_M11,Q1_M11,Q2_M11,T1_M11,T2_M11,T3_M11,T4_M11,T5_M11,U1_M11,ZSPAN_M11,X0_M11,X2_M11,X1_M11
2022-03-04 02:00:00,,0823.3,5.02,0.00,29.8,28.9,00.0,38.8,31.6,11.0,-002.7,0031.26,0012.88,0011.60
2022-03-04 02:01:00,,0823.3,5.00,0.00,29.8,28.9,00.0,38.8,31.6,10.9,-002.6,0031.35,0012.90,0011.61
2022-03-04 02:02:00,,0823.2,4.99,0.00,29.8,28.9,00.0,38.8,31.6,11.0,-002.3,0031.05,0012.84,0011.58
2022-03-04 02:03:00,,0823.3,5.01,0.00,29.9,28.9,00.0,38.8,31.6,11.0,-002.1,0030.52,0012.80,0011.56
2022-03-04 02:04:00,,0823.3,4.98,0.00,29.9,28.9,00.0,38.8,31.6,11.0,-001.5,0029.86,0012.74,0011.56
2022-03-04 02:05:00,,0823.3,5.01,0.00,29.9,28.9,00.0,38.8,31.6,11.0,-001.2,0029.66,0012.75,0011.58
2022-03-04 02:06:00,,0823.3,4.99,0.00,29.9,29.0,00.0,38.9,31.6,10.9,-000.7,0027.11,0012.78,0011.60
2022-03-04 02:07:00,,0823.3,5.01,0.00,29.9,29.0,00.0,38.9,31.6,10.9,-000.6,0026.03,0012.78,0011.58
2022-03-04 02:08:00,,0823.2,4.99,0.00,29.9,29.0,00.0,38.9,31.6,10.9,-000.6,0025.92,0012.81,0011.56
2022-03-04 02:09:00,,0823.2,5.00,0.00,29.9,29.0,00.0,38.9,31.6,10.9,-000.0,0025.64,0012.76,0011.53
2022-03-04 02:10:00,,0823.2,5.00,0.00,29.9,29.0,00.0,38.9,31.7,10.9,-000.0,0024.39,0012.79,0011.56
2022-03-04 02:11:00,,0823.2,5.00,0.00,29.9,29.0,00.0,38.9,31.7,10.9,0000.5,0024.10,0012.80,0011.57
2022-03-04 02:12:00,,0823.2,4.99,0.00,29.9,29.0,00.0,38.9,31.6,10.9,0001.2,0024.81,0012.82,0011.60
2022-03-04 02:13:00,,0823.2,5.01,0.00,30.0,29.0,00.0,38.9,31.6,10.9,0001.6,0024.80,0012.81,0011.62
2022-03-04 02:14:00,,0823.1,5.00,0.00,30.0,29.0,00.0,38.9,31.7,10.8,0001.4,0024.61,0012.84,0011.66
2022-03-04 02:15:00,,0823.1,5.00,0.00,30.0,29.0,00.0,38.9,31.7,10.7,0000.8,0024.38,0012.88,0011.67
2022-03-04 02:16:00,,0823.2,5.00,0.00,30.0,29.0,00.0,38.9,31.7,10.7,0000.7,0023.36,0012.83,0011.65
2022-03-04 02:17:00,,0823.2,5.00,0.00,30.0,29.0,00.0,38.9,31.7,10.7,0000.3,0023.28,0012.77,0011.63
2022-03-04 02:18:00,,0823.2,5.00,0.00,30.0,29.0,00.0,38.9,31.7,10.7,-000.2,0023.77,0012.74,0011.59
2022-03-04 02:19:00,,0823.2,5.02,0.00,30.0,29.0,00.0,38.9,31.7,10.7,-000.4,0024.13,0012.69,0011.55
2022-03-04 02:20:00,,0823.1,4.99,0.00,30.0,29.0,00.0,39.0,31.7,10.7,-000.5,0024.38,0012.66,0011.50
2022-03-04 02:21:00,,0823.1,5.01,0.00,30.0,29.0,00.0,39.0,31.7,10.7,-000.2,0024.18,0012.62,0011.42
2022-03-04 02:22:00,,0823.1,5.00,0.00,30.0,29.1,00.0,39.0,31.7,10.8,-000.5,0025.52,0012.63,0011.37
2022-03-04 02:23:00,,0823.1,4.99,0.00,30.0,29.1,00.0,39.0,31.7,10.8,-000.4,0024.82,0012.54,0011.32
2022-03-04 02:24:00,,0823.1,5.02,0.00,30.0,29.1,00.0,39.0,31.7,10.7,-000.3,0024.81,0012.48,0011.26
2022-03-04 02:25:00,,0823.1,4.98,0.00,30.0,29.1,00.0,39.0,31.7,10.8,-000.6,0024.46,0012.46,0011.21
2022-03-04 02:26:00,,0823.1,5.01,0.00,30.0,29.1,00.0,39.0,31.7,10.7,-000.3,0025.09,0012.38,0011.15
2022-03-04 02:27:00,,0823.1,5.00,0.00,30.0,29.1,00.0,39.0,31.7,10.8,-000.3,0025.45,0012.35,0011.09
2022-03-04 02:28:00,,0823.1,5.00,0.00,30.0,29.1,00.0,39.0,31.7,10.7,-000.2,0026.07,0012.28,0011.04
2022-03-04 02:29:00,,0823.1,5.00,0.00,30.0,29.1,00.0,39.0,31.7,10.8,-000.2,0026.90,0012.25,0011.02
2022-03-04 02:30:00,,0823.1,5.00,0.00,30.0,29.1,00.0,39.0,31.7,10.8,0000.1,0026.30,0012.17,0011.00
2022-03-04 02:31:00,,0823.1,5.01,0.00,30.0,29.1,00.0,39.0,31.7,10.7,0000.4,0026.32,0012.14,0011.00
2022-03-04 02:32:00,,0823.1,4.98,0.00,30.0,29.1,00.0,39.0,31.7,10.7,0000.3,0026.66,0012.15,0011.02
2022-03-04 02:33:00,,0823.1,5.01,0.00,30.0,29.1,00.0,39.0,31.7,10.8,0000.3,0025.42,0012.14,0011.02
2022-03-04 02:34:00,,0823.1,4.99,0.00,30.0,29.1,00.0,39.0,31.7,10.7,-000.1,0025.08,0012.17,0011.00
2022-03-04 02:35:00,,0823.1,5.01,0.00,30.0,29.1,00.0,39.0,31.7,10.7,-000.6,0025.07,0012.19,0010.99
2022-03-04 02:36:00,,0823.1,4.98,0.00,30.0,29.1,00.0,39.0,31.7,10.6,-000.7,0025.59,0012.16,0010.97
2022-03-04 02:37:00,,0823.1,5.00,0.00,30.0,29.1,00.0,39.0,31.7,10.6,-001.1,0025.54,0012.15,0010.96
2022-03-04 02:38:00,,0823.1,5.00,0.00,30.0,29.1,00.0,39.0,31.7,10.7,-001.2,0025.40,0012.19,0010.96
2022-03-04 02:39:00,,0823.1,4.99,0.00,30.0,29.1,00.0,39.0,31.6,10.7,-001.0,0024.22,0012.20,0010.94
2022-03-04 02:40:00,,0823.1,5.01,0.00,30.0,29.1,00.0,39.0,31.7,10.7,-000.6,0022.67,0012.17,0010.93
2022-03-04 02:41:00,,0823.2,4.99,0.00,30.0,29.1,00.0,39.0,31.7,10.7,-000.6,0022.48,0012.16,0010.92
2022-03-04 02:42:00,,0823.1,5.01,0.00,30.0,29.1,00.0,39.0,31.7,10.7,-001.0,0021.83,0012.19,0010.90
2022-03-04 02:43:00,,0823.1,4.98,0.00,30.0,29.1,00.0,39.0,31.7,10.7,-001.1,0020.90,0012.14,0010.89
2022-03-04 02:44:00,,0823.2,5.01,0.00,30.0,29.1,00.0,39.0,31.7,10.6,-000.9,0020.59,0012.07,0010.90
2022-03-04 02:45:00,,0823.2,4.98,0.00,30.0,29.1,00.0,39.0,31.7,10.5,-001.1,0021.08,0012.05,0010.90
2022-03-04 02:46:00,,0823.2,5.02,0.00,30.0,29.1,00.0,39.1,31.7,10.4,-000.7,0020.91,0012.02,0010.87
2022-03-04 02:47:00,,0823.2,4.98,0.00,30.0,29.1,00.0,39.1,31.7,10.3,-000.1,0020.87,0012.01,0010.84
2022-03-04 02:48:00,,0823.2,5.01,0.00,30.0,29.1,00.0,39.1,31.7,10.3,0000.6,0021.07,0012.02,0010.83
2022-03-04 02:49:00,,0823.1,5.00,0.00,30.0,29.1,00.0,39.1,31.7,10.4,0000.9,0020.60,0011.94,0010.80
2022-03-04 02:50:00,,0823.2,5.01,0.00,30.1,29.1,00.0,39.1,31.8,10.6,0000.6,0020.65,0011.89,0010.80
2022-03-04 02:51:00,,0823.2,5.00,0.00,30.1,29.2,00.0,39.1,31.8,10.5,0000.6,0021.25,0011.88,0010.78
2022-03-04 02:52:00,,0823.1,4.99,0.00,30.1,29.2,00.0,39.1,31.7,10.5,0000.4,0020.98,0011.85,0010.75
2022-03-04 02:53:00,,0823.1,5.02,0.00,30.1,29.2,00.0,39.1,31.7,10.4,0000.1,0020.95,0011.79,0010.73
2022-03-04 02:54:00,,0823.1,4.98,0.00,30.0,29.2,00.0,39.1,31.7,10.4,0000.5,0022.74,0011.79,0010.71
2022-03-04 02:55:00,,0823.1,5.01,0.00,30.0,29.2,00.0,39.1,31.7,10.3,0000.6,0023.78,0011.79,0010.66
2022-03-04 02:56:00,,0823.0,4.99,0.00,30.0,29.2,00.0,39.1,31.7,10.3,0000.6,0023.57,0011.75,0010.63
2022-03-04 02:57:00,,0823.0,4.99,0.00,30.0,29.2,00.0,39.1,31.7,10.3,0000.8,0023.70,0011.77,0010.65
2022-03-04 02:58:00,,0822.9,5.01,0.00,30.0,29.2,00.0,39.1,31.8,10.3,0000.2,0023.91,0011.72,0010.65
2022-03-04 02:59:00,,0823.0,4.98,0.00,30.0,29.2,00.0,39.1,31.8,10.4,-000.2,0023.69,0011.74,0010.67
